Time,TemperatureF,DewpointF,PressureIn,WindDirection,WindDirectionDegrees,WindSpeedMPH,WindSpeedGustMPH,Humidity,HourlyPrecipIn,Conditions,Clouds,dailyrainin,SoftwareType,DateUTC
2016-07-26 00:10:00,79.1,73.0,29.91,NNW,327,0.0,0.0,82,0.00,,,0.00,weatherlink.com 1.10,2016-07-26 04:10:00,
2016-07-26 00:25:00,79.0,73.0,29.92,NW,326,0.0,0.0,82,0.00,,,0.00,weatherlink.com 1.10,2016-07-26 04:25:00,
2016-07-26 00:40:00,78.9,73.0,29.91,NW,321,0.0,0.0,83,0.00,,,0.00,weatherlink.com 1.10,2016-07-26 04:40:00,
2016-07-26 00:55:00,78.6,73.0,29.91,NNW,334,0.0,1.0,83,0.00,,,0.00,weatherlink.com 1.10,2016-07-26 04:55:00,
2016-07-26 01:10:00,78.4,73.0,29.92,NNW,333,0.0,0.0,83,0.00,,,0.00,weatherlink.com 1.10,2016-07-26 05:10:00,
2016-07-26 01:25:00,78.2,73.0,29.91,NNW,333,0.0,0.0,83,0.00,,,0.00,weatherlink.com 1.10,2016-07-26 05:25:00,
2016-07-26 01:40:00,77.9,72.0,29.92,NNW,333,0.0,0.0,82,0.00,,,0.00,weatherlink.com 1.10,2016-07-26 05:40:00,
2016-07-26 01:55:00,78.0,72.0,29.92,NNW,330,0.0,0.0,81,0.00,,,0.00,weatherlink.com 1.10,2016-07-26 05:55:00,
2016-07-26 02:10:00,78.0,71.0,29.93,NNW,328,0.0,0.0,80,0.00,,,0.00,weatherlink.com 1.10,2016-07-26 06:10:00,
2016-07-26 02:25:00,77.8,71.0,29.92,NW,326,0.0,0.0,80,0.00,,,0.00,weatherlink.com 1.10,2016-07-26 06:25:00,
2016-07-26 02:40:00,77.6,71.0,29.92,NW,326,0.0,0.0,80,0.00,,,0.00,weatherlink.com 1.10,2016-07-26 06:40:00,
2016-07-26 02:55:00,77.4,71.0,29.92,NNW,327,0.0,0.0,80,0.00,,,0.00,weatherlink.com 1.10,2016-07-26 06:55:00,
2016-07-26 03:10:00,77.2,71.0,29.92,NW,323,0.0,0.0,80,0.00,,,0.00,weatherlink.com 1.10,2016-07-26 07:10:00,
2016-07-26 03:25:00,77.2,71.0,29.93,NW,323,0.0,0.0,80,0.00,,,0.00,weatherlink.com 1.10,2016-07-26 07:25:00,
2016-07-26 03:40:00,77.0,70.0,29.92,NW,323,0.0,0.0,80,0.00,,,0.00,weatherlink.com 1.10,2016-07-26 07:40:00,
2016-07-26 03:55:00,76.8,70.0,29.92,NW,322,0.0,0.0,80,0.00,,,0.00,weatherlink.com 1.10,2016-07-26 07:55:00,
2016-07-26 04:10:00,76.6,70.0,29.93,NW,321,0.0,0.0,80,0.00,,,0.00,weatherlink.com 1.10,2016-07-26 08:10:00,
2016-07-26 04:25:00,76.5,70.0,29.93,NNW,333,0.0,0.0,79,0.00,,,0.00,weatherlink.com 1.10,2016-07-26 08:25:00,
2016-07-26 04:40:00,76.3,69.0,29.93,NNE,13,0.0,0.0,79,0.00,,,0.00,weatherlink.com 1.10,2016-07-26 08:40:00,
2016-07-26 04:55:00,76.2,70.0,29.93,North,350,0.0,0.0,80,0.00,,,0.00,weatherlink.com 1.10,2016-07-26 08:55:00,
2016-07-26 05:10:00,76.2,69.0,29.93,NNE,32,0.0,0.0,79,0.00,,,0.00,weatherlink.com 1.10,2016-07-26 09:10:00,
2016-07-26 05:25:00,76.0,69.0,29.93,NE,42,0.0,0.0,79,0.00,,,0.00,weatherlink.com 1.10,2016-07-26 09:25:00,
2016-07-26 05:40:00,75.7,69.0,29.94,North,11,0.0,0.0,79,0.00,,,0.00,weatherlink.com 1.10,2016-07-26 09:40:00,
2016-07-26 05:56:00,75.6,69.0,29.95,NNE,33,0.0,0.0,79,0.00,,,0.00,weatherlink.com 1.10,2016-07-26 09:56:00,
2016-07-26 06:13:00,75.6,69.0,29.95,NNE,20,0.0,0.0,79,0.00,,,0.00,weatherlink.com 1.10,2016-07-26 10:13:00,
2016-07-26 06:25:00,75.6,69.0,29.96,NNE,26,0.0,0.0,79,0.00,,,0.00,weatherlink.com 1.10,2016-07-26 10:25:00,
2016-07-26 06:41:00,75.5,68.0,29.96,ENE,60,0.0,0.0,78,0.00,,,0.00,weatherlink.com 1.10,2016-07-26 10:41:00,
2016-07-26 06:56:00,75.5,69.0,29.96,ENE,60,0.0,0.0,79,0.00,,,0.00,weatherlink.com 1.10,2016-07-26 10:56:00,
2016-07-26 07:10:00,75.6,68.0,29.96,ENE,60,0.0,0.0,78,0.00,,,0.00,weatherlink.com 1.10,2016-07-26 11:10:00,
2016-07-26 07:25:00,75.5,69.0,29.96,ENE,60,0.0,0.0,79,0.00,,,0.00,weatherlink.com 1.10,2016-07-26 11:25:00,
2016-07-26 07:40:00,75.5,69.0,29.96,ENE,60,0.0,0.0,79,0.00,,,0.00,weatherlink.com 1.10,2016-07-26 11:40:00,
2016-07-26 07:55:00,75.4,69.0,29.96,ENE,60,0.0,0.0,80,0.00,,,0.00,weatherlink.com 1.10,2016-07-26 11:55:00,
2016-07-26 08:10:00,75.8,69.0,29.96,ENE,60,0.0,0.0,79,0.00,,,0.00,weatherlink.com 1.10,2016-07-26 12:10:00,
2016-07-26 08:25:00,76.6,70.0,29.96,NNW,344,0.0,0.0,79,0.00,,,0.00,weatherlink.com 1.10,2016-07-26 12:25:00,
2016-07-26 08:41:00,77.6,70.0,29.96,NNE,23,0.0,0.0,77,0.00,,,0.00,weatherlink.com 1.10,2016-07-26 12:41:00,
2016-07-26 08:55:00,78.6,70.0,29.96,NE,35,0.0,1.0,74,0.00,,,0.00,weatherlink.com 1.10,2016-07-26 12:55:00,
2016-07-26 09:11:00,78.8,70.0,29.96,NE,47,0.0,1.0,74,0.00,,,0.00,weatherlink.com 1.10,2016-07-26 13:11:00,
2016-07-26 09:26:00,79.0,70.0,29.96,East,98,0.0,0.0,73,0.00,,,0.00,weatherlink.com 1.10,2016-07-26 13:26:00,
2016-07-26 09:41:00,80.0,70.0,29.96,SE,127,0.0,1.0,72,0.00,,,0.00,weatherlink.com 1.10,2016-07-26 13:41:00,
2016-07-26 09:56:00,80.8,70.0,29.97,ENE,63,0.0,0.0,70,0.00,,,0.00,weatherlink.com 1.10,2016-07-26 13:56:00,
2016-07-26 10:11:00,82.1,71.0,29.97,NNE,33,0.0,0.0,69,0.00,,,0.00,weatherlink.com 1.10,2016-07-26 14:11:00,
2016-07-26 10:26:00,81.9,70.0,29.97,ESE,102,0.0,0.0,67,0.00,,,0.00,weatherlink.com 1.10,2016-07-26 14:26:00,
2016-07-26 10:41:00,82.0,71.0,29.97,ENE,57,0.0,0.0,69,0.00,,,0.00,weatherlink.com 1.10,2016-07-26 14:41:00,
2016-07-26 10:56:00,81.7,71.0,29.96,SE,125,0.0,0.0,69,0.00,,,0.00,weatherlink.com 1.10,2016-07-26 14:56:00,
2016-07-26 11:11:00,83.0,71.0,29.97,NE,46,0.0,0.0,68,0.00,,,0.00,weatherlink.com 1.10,2016-07-26 15:11:00,
2016-07-26 11:26:00,83.0,71.0,29.97,SE,128,0.0,0.0,68,0.00,,,0.00,weatherlink.com 1.10,2016-07-26 15:26:00,
2016-07-26 11:41:00,83.0,71.0,29.97,NNW,334,0.0,0.0,68,0.00,,,0.00,weatherlink.com 1.10,2016-07-26 15:41:00,
2016-07-26 11:56:00,83.2,72.0,29.97,NNE,33,0.0,0.0,68,0.00,,,0.00,weatherlink.com 1.10,2016-07-26 15:56:00,
2016-07-26 12:11:00,83.0,71.0,29.97,NW,317,0.0,0.0,67,0.00,,,0.00,weatherlink.com 1.10,2016-07-26 16:11:00,
2016-07-26 12:26:00,83.1,71.0,29.97,NW,313,0.0,0.0,67,0.00,,,0.00,weatherlink.com 1.10,2016-07-26 16:26:00,
2016-07-26 12:41:00,82.9,71.0,29.97,West,259,0.0,1.0,68,0.00,,,0.00,weatherlink.com 1.10,2016-07-26 16:41:00,
2016-07-26 12:56:00,82.1,72.0,29.97,SW,217,0.0,0.0,71,0.00,,,0.00,weatherlink.com 1.10,2016-07-26 16:56:00,
2016-07-26 13:11:00,80.8,71.0,29.96,WSW,238,0.0,0.0,73,0.00,,,0.00,weatherlink.com 1.10,2016-07-26 17:11:00,
2016-07-26 13:26:00,79.9,73.0,29.96,SSW,210,0.0,0.0,79,0.00,,,0.00,weatherlink.com 1.10,2016-07-26 17:26:00,
2016-07-26 13:41:00,79.0,72.0,29.97,SW,219,0.0,0.0,80,0.00,,,0.00,weatherlink.com 1.10,2016-07-26 17:41:00,
2016-07-26 13:56:00,78.0,73.0,29.96,SSW,197,0.0,0.0,84,0.00,,,0.00,weatherlink.com 1.10,2016-07-26 17:56:00,
2016-07-26 14:11:00,77.6,73.0,29.95,SSW,210,0.0,0.0,86,0.01,,,0.01,weatherlink.com 1.10,2016-07-26 18:11:00,
2016-07-26 14:26:00,77.2,74.0,29.95,WNW,288,0.0,0.0,89,0.01,,,0.01,weatherlink.com 1.10,2016-07-26 18:26:00,
2016-07-26 14:41:00,77.1,74.0,29.95,NW,304,0.0,1.0,90,0.02,,,0.02,weatherlink.com 1.10,2016-07-26 18:41:00,
2016-07-26 14:56:00,76.4,73.0,29.95,WNW,297,0.0,0.0,89,0.03,,,0.03,weatherlink.com 1.10,2016-07-26 18:56:00,
2016-07-26 15:11:00,76.9,74.0,29.94,NW,307,0.0,1.0,90,0.02,,,0.03,weatherlink.com 1.10,2016-07-26 19:11:00,
2016-07-26 15:26:00,78.2,74.0,29.93,NNE,33,0.0,0.0,86,0.02,,,0.03,weatherlink.com 1.10,2016-07-26 19:26:00,
2016-07-26 15:41:00,79.2,74.0,29.93,NW,321,0.0,0.0,83,0.00,,,0.03,weatherlink.com 1.10,2016-07-26 19:41:00,
2016-07-26 15:56:00,79.9,74.0,29.93,WNW,285,0.0,0.0,81,0.00,,,0.03,weatherlink.com 1.10,2016-07-26 19:56:00,
2016-07-26 16:11:00,80.7,73.0,29.94,NW,326,0.0,0.0,78,0.00,,,0.03,weatherlink.com 1.10,2016-07-26 20:11:00,
2016-07-26 16:26:00,82.3,74.0,29.93,NW,305,0.0,1.0,77,0.00,,,0.03,weatherlink.com 1.10,2016-07-26 20:26:00,
2016-07-26 16:41:00,82.8,74.0,29.93,SW,218,0.0,0.0,74,0.00,,,0.03,weatherlink.com 1.10,2016-07-26 20:41:00,
2016-07-26 16:56:00,83.0,74.0,29.92,NW,326,0.0,0.0,74,0.00,,,0.03,weatherlink.com 1.10,2016-07-26 20:56:00,
2016-07-26 17:11:00,84.1,75.0,29.92,SE,131,0.0,0.0,73,0.00,,,0.03,weatherlink.com 1.10,2016-07-26 21:11:00,
2016-07-26 17:26:00,85.7,74.0,29.92,SW,229,0.0,0.0,67,0.00,,,0.03,weatherlink.com 1.10,2016-07-26 21:26:00,
2016-07-26 17:41:00,86.3,74.0,29.91,NNW,336,0.0,0.0,67,0.00,,,0.03,weatherlink.com 1.10,2016-07-26 21:41:00,
2016-07-26 17:56:00,85.0,74.0,29.91,NNW,338,0.0,0.0,69,0.00,,,0.03,weatherlink.com 1.10,2016-07-26 21:56:00,
2016-07-26 18:11:00,85.0,72.0,29.91,ESE,119,0.0,0.0,66,0.00,,,0.03,weatherlink.com 1.10,2016-07-26 22:11:00,